Other Public Products
Issued by NWS Grand Forks, ND

Home | Current Version | Previous Version | Text Only | Print | Product List | Glossary Off
Versions: 1 2 3 4 5 6 7 8 9 10 11 12 13 14 15 16 17 18 19 20 21 22 23 24 25 26 27 28 29 30 31 32 33 34 35 36 37 38 39 40 41 42 43 44 45 46 47 48 49 50

000
FPUS83 KFGF 230231
OPUFGF
PRAIRIE TO PINES WEATHER ROUNDUP
NATIONAL WEATHER SERVICE EASTERN NORTH DAKOTA/GRAND FORKS ND
900 PM CDT TUE APR 22 2014

 **SATELLITE DATA USED TO AUGMENT SKY COVER AT AUTOMATED STATIONS**
 *****  WEATHER ACROSS EASTERN NORTH DAKOTA  *****

CITY           SKY/WX    TMP DP  RH WIND       PRES   REMARKS
GRAND FORKS    PTCLDY    53  31  42 E9        29.98R
GRAND FORKS AF PTCLDY    52  34  49 E8        29.98R
GRAND CITY NWS   N/A     52 N/A N/A E12         N/A
BUXTON           N/A     53  36  53 E8          N/A
DEVILS LAKE    MOCLDY    52  34  50 E15       29.91F
FARGO          CLEAR     54  32  43 E9        29.97S
WAHPETON ARPT  PTCLDY    52  32  46 SE9       29.98S
$$

 *****  WEATHER ACROSS CENTRAL AND WESTERN NORTH DAKOTA  *****

CITY           SKY/WX    TMP DP  RH WIND       PRES   REMARKS
JAMESTOWN      MOCLDY    53  34  48 SE16      29.89F
BISMARCK       CLEAR     59  31  34 SE20G26   29.77F
MINOT          MOCLDY    57  32  38 E15G23    29.78S
MINOT AFB      MOCLDY    55  36  50 SE18      29.78S
GARRISON         N/A     56  33  42 SE17      29.75F
WILLISTON      MOCLDY    64  30  27 SE18G26   29.65S
DICKINSON      MOCLDY    58  30  34 SE25G32   29.64F
HETTINGER      CLOUDY    59  31  34 E21G32    29.64F
$$

 *****  OTHER OBSERVATIONS NORTHEAST NORTH DAKOTA  *****

CITY           SKY/WX    TMP DP  RH WIND       PRES   REMARKS
WALHALLA         N/A     48  34  57 SE7       29.98S
LANGDON        FAIR      46  34  61 E13       29.95S
CAVALIER       FAIR      48  36  61 SE7       29.98S
GRAFTON        FAIR      48  37  66 E10       29.98S
CANDO          FAIR      50  36  57 SE16      29.91S
FORT TOTTEN      N/A     54  28  36 SE9       29.95
ROLLA          FAIR      48  34  57 SE16G22   29.91S
RUGBY          FAIR      50  32  50 SE17G23   29.85F
 ***** THE ABOVE OBSERVATIONS ARE NON NWS ARE NOT QUALITY
        CONTROLLED AND MAY MIS-REPORT RAIN FOR SNOW...
$$

 *****  OTHER OBSERVATIONS SOUTHEAST NORTH DAKOTA *****

CITY           SKY/WX    TMP DP  RH WIND       PRES   REMARKS
COOPERSTOWN    FAIR      48  32  53 SE12      29.94S
VALLEY CITY    FAIR      52  32  46 SE10G17   29.93S
OAKES          FAIR      54  36  50 E16       29.91S
GWINNER        PTCLDY    54  36  50 E15       29.94S
BUFFALO        NOT AVBL
WYNDMERE       NOT AVBL
 ***** THE ABOVE OBSERVATIONS ARE NON NWS ARE NOT QUALITY
       CONTROLLED AND MAY MIS-REPORT RAIN FOR SNOW...
$$

  *****  WEATHER ACROSS NORTHERN MINNESOTA  *****

CITY           SKY/WX    TMP DP  RH WIND       PRES   REMARKS
FLAG ISLAND    CLEAR     39  19  45 CALM      30.05R
WARROAD        CLEAR     39  25  56 E5        30.06R
ROSEAU         CLEAR     39  30  70 E7        30.04S
HALLOCK        CLOUDY    48  34  57 E9        30.00S
THF RVR FALLS  CLEAR     46  30  53 E7        30.03R
HALSTAD          N/A     46  21  36 E9          N/A
FOSSTON        CLEAR     43  25  49 E5        30.03R
BAUDETTE       CLEAR     43  24  47 NE3       30.05
WASKISH        CLEAR     37  27  65 CALM      30.05R
CROOKSTON      CLEAR     52  34  50 E9        30.01R
$$
  *****  WEATHER ACROSS CENTRAL AND WEST MINNESOTA  *****

CITY           SKY/WX    TMP DP  RH WIND       PRES   REMARKS
BEMIDJI        CLEAR     36  21  53 SE3       30.04R
PARK RAPIDS    PTCLDY    48  25  40 E6        30.03R
WADENA         PTCLDY    46  28  49 E9        30.03R
DETROIT LAKES  PTCLDY    50  30  46 SE8       30.02S
MOORHEAD       CLEAR     52  36  54 SE7       29.99S
FERGUS FALLS   PTCLDY    52  28  40 SE6       29.97R
ELBOW LAKE     FAIR      52  34  51 E10       29.99S
MORRIS MN      PTCLDY    52  34  50 E13       29.99R
STAPLES        PTCLDY    46  21  36 CALM      30.05R
WHEATON        PTCLDY    54  37  54 E12       29.99S
$$
  *****  WEATHER ELSEWHERE ACROSS MINNESOTA  *****

CITY           SKY/WX    TMP DP  RH WIND       PRES   REMARKS
DULUTH         CLEAR     45  20  36 CALM      30.06R
INTRNTL FALLS  CLEAR     37  22  54 E3        30.05S
ELY            CLEAR     34  21  60 CALM      30.07R
CLOQUET        CLEAR     39  19  45 CALM      30.06R
BRAINERD       PTCLDY    49  26  41 SE5       30.06R
HIBBING        CLEAR     39  20  46 NE3       30.05R
ALEXANDRIA     CLEAR     52  30  43 SE7       30.03R
SAINT CLOUD    CLEAR     50  27  40 E3        30.05R
MINNEAPOLIS    PTCLDY    52  26  36 NE5       30.07R
$$

  *****  WEATHER ACROSS SOUTH DAKOTA  *****

CITY           SKY/WX    TMP DP  RH WIND       PRES   REMARKS
SIOUX FALLS    MOCLDY    59  32  36 S15       29.95R
BROOKINGS      NOT AVBL
WATERTOWN      CLOUDY    56  33  42 SE9       29.94R
HURON          CLOUDY    60  31  33 SE16G24   29.85F
SISSETON         N/A     55  34  45 SE15      29.95R
ABERDEEN       CLOUDY    58  33  39 E15       29.87F
MITCHELL         N/A     60  32  34 MISG      29.87F
PIERRE         CLOUDY    63  32  31 SE24G33   29.69S
MOBRIDGE       CLOUDY    59  29  31 E24G35    29.72F
RAPID CITY     CLOUDY    64  43  46 VRB3      29.59F
$$

  *****  SOME WEATHER IN NEARBY STATES *****

CITY           SKY/WX    TMP DP  RH WIND       PRES   REMARKS
GLASGOW MT     MOCLDY    70  34  26 SE25G32   29.46S
GREAT FALLS MT LGT RAIN  46  45  93 W8        29.52R FOG
CHEYENNE WY    CLOUDY    62  35  36 S8        29.74F
SCOTTSBLUFF NE LGT RAIN  70  41  34 SE13      29.64F
OMAHA NE       CLOUDY    65  33  30 SE12      29.97R
DES MOINES IA  PTCLDY    61  31  32 E6        30.03R
DAVENPORT IA   CLEAR     47  31  53 N7        30.03R
CHICAGO IL     PTCLDY    43  25  49 NE10      30.06R
EAU CLAIRE WI  CLEAR     45  23  42 NE3       30.07R
LA CROSSE WI   CLEAR     50  27  40 N3        30.05R
$$

  *****  SOME NATIONAL WEATHER *****

CITY           SKY/WX    TMP DP  RH WIND       PRES   REMARKS
LA GUARDIA NY  MOCLDY    64  50  60 SW5       29.52F
RALEIGH NC     CLOUDY    67  53  61 W6        29.71R
ATLANTA GA     PTCLDY    62  59  90 W3        29.87R
NEW ORLEANS LA PTCLDY    71  63  75 NW5       29.91R
OKLAHOMA CITY  PTCLDY    64  40  41 SE7       29.94R
ALBUQUERQUE NM MOCLDY    75  29  18 S17       29.86F
SALT LAKE CITY LGT RAIN  47  43  86 N23G33    29.78R HAZE
LOS ANGELES CA CLEAR     63  49  60 SW9       29.90F
BOISE ID       CLOUDY    48  38  68 NW13      29.80R
SEATTLE WA     PTSUNNY   47  39  74 SE12      29.89F
$$

*** WEATHER ACROSS MANITOBA...SASKATCHEWAN AND ONTARIO ***
                ***ONTARIO***

CITY           SKY/WX    TMP DP  RH WIND       PRES   REMARKS
GERALDTON      CLEAR     30  23  74 W2        30.05R
THUNDER BAY    CLEAR     36  27  69 N2        30.09R
SIOUX LOOKOUT  CLEAR     34  21  60 CALM      30.06R
TORONTO        CLOUDY    43  34  70 NW18      29.71R
BIG TROUT LK   CLOUDY    36  18  48 NW5       30.05R
PICKLE LAKE    PTCLDY    39  21  48 E3        30.04S
DRYDEN         CLEAR    N/A N/A N/A MISG        N/A
KENORA         CLEAR     43  21  42 S3        30.05S
$$
                *** MANITOBA***

CITY           SKY/WX    TMP DP  RH WIND       PRES   REMARKS
BRANDON        PTCLDY    52  39  62 E10       29.92R
DAUPHIN        CLEAR     48  41  76 SE15      29.93S
ISLAND LAKE    MOCLDY    39  37  93 CALM      30.03R
PILOT MOUND      N/A     48  36  61 SE14        N/A
THE PAS        MOCLDY    45  30  57 SE7         N/A
THOMPSON       PTCLDY    41  34  75 NE9       30.02R
WINNIPEG       PTCLDY    46  32  57 E9        30.01S
LYNN LAKE      CLEAR     39  28  65 NE8       30.05R
CHURCHILL      CLOUDY    27  25  93 N10       30.16R WCI  17
GILLAM         MOCLDY    39  32  75 CALM      30.03S
$$
                ***SASKATCHEWAN***

CITY           SKY/WX    TMP DP  RH WIND       PRES   REMARKS
ESTEVAN        CLOUDY    55  37  50 E17G23    29.74S
KINDERSLEY     CLOUDY    63  32  31 E24G32    29.50S
LLOYDMINSTER   CLOUDY    54  37  54 E18G28    29.58S
PRINCE ALBERT  MOCLDY    50  37  62 E10       29.79S
REGINA         CLOUDY    57  36  44 E24G32    29.70S
YORKTON        CLEAR     46  37  71 E13G18    29.86R



USA.gov is the U.S. government's official web portal to all federal, state and local government web resources and services.